Simultaneous Nadir Overpasses (SNOs) Predictions

Prediction of SNOs between AURA and NPP Satellite Orbit:

Table of predicted SNOs for the next 14.0 days since TLE Epoch: 9/3/2022
Index Date (AURA) Time (AURA) Lat,Lon (AURA) SZA (AURA ) Date (NPP) Time (NPP) Lat,Lon (NPP) SZA (NPP ) Distance(km) Time Diff (sec)
1 09/03/2022 19:08:52 79.45, 149.35 85.20 09/03/2022 19:08:39 79.46, 149.43 85.20 1.71 13
2 09/03/2022 19:58:15 -79.61, -41.91 95.02 09/03/2022 19:59:20 -79.61, -42.03 95.05 2.56 65
3 09/06/2022 10:35:57 -79.29, 96.53 93.65 09/06/2022 10:34:56 -79.30, 96.59 93.62 1.27 61
4 09/06/2022 11:25:17 79.51, -94.36 86.05 09/06/2022 11:25:34 79.51, -94.41 86.05 1.10 17
5 09/09/2022 02:52:22 -79.35,-147.24 92.78 09/09/2022 02:51:51 -79.34,-147.27 92.75 0.59 31
6 09/09/2022 03:41:42 79.56, 21.88 86.93 09/09/2022 03:42:29 79.55, 21.74 86.92 2.80 47
7 09/11/2022 19:08:46 -79.43, -30.81 91.94 09/11/2022 19:08:45 -79.42, -30.87 91.92 1.31 1
8 09/11/2022 19:56:03 81.77,-175.64 81.06 09/11/2022 19:57:16 81.13,-176.22 80.74 71.55 73
9 09/14/2022 10:35:48 79.25, -83.73 89.27 09/14/2022 10:35:00 79.24, -83.85 89.33 2.76 48
10 09/14/2022 11:25:08 -79.53, 85.82 91.12 09/14/2022 11:25:37 -79.53, 85.78 91.14 0.89 29
11 09/17/2022 02:52:10 79.38, 33.06 90.05 09/17/2022 02:51:52 79.38, 33.00 90.08 1.27 18



Historial Predications of SNOs between AURA and NPP
